Tracking 25963 objects as of 12-Aug-2022
HD Live streaming from Space Station
objects crossing your sky now

SL-8 R/B

Track SL-8 R/B now!
10-day predictions


NORAD ID: 8073
Int'l Code: 1975-074B
Perigee: 970.3 km
Apogee: 999.9 km
Inclination: 82.9 °
Period: 104.6 minutes
Semi major axis: 7356 km
RCS: 4.716 m2 (large)
Launch date: August 14, 1975
Source: Commonwealth of Independent States (former USSR) (CIS)
Launch site: PLESETSK MISSILE AND SPACE COMPLEX (PKMTR)

Note: This is a ROCKET BODY
aabbcc
Your satellite tracking list
Your tracking list is empty




NASA's NSSDC Master Catalog

Two Line Element Set (TLE):
1  8073U 75074B   22223.78951484  .00000070  00000-0  56255-4 0  9992
2  8073  82.9027   2.7836 0020088 270.2626 255.6863 13.76037087358998
Source of the keplerian elements: AFSPC